Wind_Speed
27 27 26 24 23 24 25 23 22 21 20 19 19 19 18 17 17 16 16 16 16 16 15 16 17 17 16 15 15 14 14 14 14 13 13 11 10 9 9 9 8 8 7 7 6 6 7 8 7 7 6 7 7 7 8 10 10 8 8 8 8 7 8 9 10 11 13 11 10 13 14 14 14 14 14 15 13 13 12 13 17 18 18 19 20
27 27 27 25 24 24 24 23 23 22 20 19 19 19 18 18 18 17 16 16 16 16 16 16 17 17 16 16 16 16 16 14 15 15 14 13 12 12 12 11 9 8 8 8 7 7 8 8 8 7 8 9 10 10 10 11 12 10 9 10 11 10 10 11 10 10 12 13 11 13 14 14 15 15 15 16 16 16 16 17 19 19 18 20 22
29 28 27 26 24 24 24 23 23 22 20 19 19 19 19 18 18 18 17 16 16 16 16 17 17 17 16 16 16 17 17 15 15 16 15 14 14 13 12 11 10 9 9 9 8 8 9 9 9 9 9 11 12 11 10 10 13 13 11 11 13 14 13 11 11 12 14 13 12 13 15 15 16 16 16 16 16 16 16 17 18 19 19 19 20
31 30 29 27 25 24 24 23 23 22 21 20 18 18 18 18 19 18 17 17 17 17 17 17 17 17 16 16 16 17 16 16 16 16 15 15 14 12 12 12 11 10 10 10 10 10 10 10 11 11 11 12 11 10 9 9 12 15 14 12 11 13 13 11 12 13 13 12 13 15 16 16 16 17 17 16 15 15 16 17 19 19 19 20 21
32 33 30 29 27 25 25 24 23 23 21 20 19 19 18 18 19 19 16 17 19 19 18 18 17 18 17 16 17 16 15 15 17 17 16 15 14 13 13 13 13 11 10 10 10 11 11 11 12 11 12 13 11 10 9 9 10 11 10 9 7 7 8 8 9 11 11 12 14 15 15 15 15 17 17 16 16 17 18 19 20 20 21 23 25
32 34 31 30 28 26 25 24 24 23 23 22 20 19 19 19 20 20 18 17 19 19 19 19 18 18 19 18 17 17 16 15 15 16 16 15 14 13 13 14 14 13 12 11 10 11 12 12 12 12 12 12 11 11 11 10 9 8 9 9 7 6 7 8 9 9 9 11 12 13 14 13 15 17 15 14 16 19 20 21 21 22 24 26 28
31 34 31 29 28 26 24 23 23 22 22 22 21 20 20 20 20 21 20 19 19 18 18 19 20 18 18 19 18 17 17 16 16 15 15 15 14 14 14 14 14 14 14 13 13 13 14 13 13 14 14 14 14 14 14 11 9 9 9 8 6 6 6 6 7 8 9 11 12 14 14 13 14 14 12 13 17 18 17 19 23 25 26 27 28
28 32 30 27 26 25 22 20 19 18 16 18 19 19 18 17 17 18 20 21 20 18 17 18 20 19 17 19 20 19 17 17 17 17 15 15 14 13 13 14 15 14 13 13 13 13 13 13 13 14 14 13 14 17 16 12 9 9 9 8 7 8 8 9 11 11 11 11 12 13 14 14 14 13 13 15 17 16 15 17 22 25 26 26 26
22 26 27 24 22 23 21 18 16 14 12 12 14 15 15 13 11 12 16 20 21 19 17 14 15 15 14 14 17 19 19 18 18 17 16 16 15 13 13 14 15 14 12 11 11 11 11 11 11 11 10 8 9 13 15 13 11 11 12 12 12 13 13 14 13 12 11 11 12 13 12 13 13 13 14 15 13 13 16 18 20 22 25 26 26
15 18 21 21 21 23 22 19 16 13 12 11 11 12 13 12 9 7 10 16 17 17 15 12 10 11 11 11 12 13 14 14 15 17 17 17 16 16 14 12 11 11 10 10 11 11 11 11 10 9 9 10 11 12 14 16 16 14 15 15 14 14 14 13 13 13 13 13 15 14 13 14 14 13 14 14 13 15 17 19 19 21 24 24 24
6 10 14 17 19 21 20 20 19 15 15 14 11 11 12 13 12 9 8 10 12 13 13 12 11 12 13 14 12 12 12 11 12 15 16 17 18 18 16 14 12 10 10 10 10 10 11 10 10 9 9 10 10 8 10 14 16 14 14 14 12 11 11 11 12 13 13 14 15 15 14 14 15 15 15 15 15 17 18 17 17 20 21 19 19
11 13 9 10 15 16 14 15 18 17 15 16 14 12 12 12 13 12 9 8 8 10 11 11 11 12 12 13 12 11 12 12 12 13 14 15 17 19 19 17 14 12 10 9 9 10 10 11 11 9 8 8 8 6 5 7 9 9 10 10 10 10 10 11 12 12 13 13 15 15 14 15 16 16 16 15 16 18 18 17 18 20 19 17 18
7 11 9 10 14 12 7 8 13 14 13 15 15 14 13 11 11 11 9 8 8 8 7 7 8 10 10 11 11 11 12 12 12 12 13 14 16 18 19 17 15 13 11 10 9 7 7 8 8 7 6 7 8 6 5 5 5 6 7 9 11 11 11 12 12 13 13 12 14 15 14 13 14 15 14 15 17 19 19 21 21 20 20 19 20
7 10 12 11 9 9 5 5 8 9 10 11 12 12 10 7 7 9 8 8 8 6 3 3 6 8 8 8 10 12 13 13 12 12 14 15 15 16 19 17 13 11 11 10 9 6 4 5 5 4 5 5 5 5 5 5 5 5 5 6 9 10 10 10 10 11 11 11 13 13 11 11 12 13 13 14 17 19 22 23 22 21 21 20 21
11 12 11 9 5 4 3 2 4 5 6 7 7 8 5 2 2 5 7 7 6 3 2 2 5 8 7 7 8 11 13 13 13 12 12 14 14 15 18 18 12 7 7 8 9 7 6 5 6 5 5 6 6 6 7 7 6 6 5 4 5 6 6 7 8 9 10 10 10 10 10 10 12 14 16 18 20 21 21 21 22 22 21 19 18
12 12 10 7 4 1 1 0 1 2 4 4 4 5 4 4 4 5 5 5 4 3 3 4 5 8 8 7 7 9 10 10 11 10 10 12 14 13 14 16 13 8 6 7 8 8 8 7 8 8 7 7 7 8 8 7 6 6 6 5 4 5 5 6 7 7 7 8 9 8 10 12 15 18 20 20 19 18 18 19 19 17 15 15 15
11 10 10 8 6 5 3 2 1 3 4 4 3 1 3 7 8 7 6 4 3 4 6 8 7 6 4 4 5 7 8 8 8 9 9 11 13 12 11 13 12 10 8 7 8 8 8 8 8 8 8 9 9 9 8 8 7 6 6 6 6 6 6 6 6 6 7 8 9 10 13 16 18 17 16 15 15 17 18 18 14 11 11 12 11
13 14 14 12 10 11 11 7 3 2 3 4 4 3 3 5 5 5 6 5 3 4 7 8 6 2 2 4 6 8 9 9 9 8 9 10 11 10 10 10 10 8 7 7 8 7 7 7 7 8 8 8 8 8 8 8 8 7 7 7 7 6 6 7 8 10 10 11 13 14 15 14 12 11 12 13 14 14 13 11 10 10 11 11 11
11 13 15 14 13 14 14 12 8 6 5 4 1 3 4 4 3 3 5 5 4 4 6 7 6 3 3 6 7 7 7 8 8 8 9 10 10 10 9 8 7 7 6 7 7 6 6 7 6 6 7 7 7 7 7 7 7 7 7 8 8 7 7 9 10 11 13 14 14 12 10 9 9 10 11 13 12 11 11 12 13 13 13 13 15
12 11 13 15 14 12 12 11 10 9 8 7 6 3 2 3 4 4 5 4 2 3 5 6 6 5 6 7 7 6 4 4 5 6 8 9 9 9 9 8 7 7 7 7 7 7 7 6 6 6 5 5 5 5 5 6 6 7 7 8 8 8 9 10 10 10 11 10 8 6 8 9 10 10 11 12 13 13 13 14 16 16 14 15 16
15 14 14 13 12 11 11 10 10 9 9 9 9 7 6 5 3 2 1 0 2 4 7 9 9 8 6 5 4 2 2 3 3 4 5 5 6 7 8 7 7 7 8 9 9 8 6 5 5 4 5 4 4 4 5 5 6 6 7 7 7 7 8 9 9 8 7 5 5 7 9 9 9 10 11 12 13 15 15 16 17 14 13 14 16
15 15 14 13 12 13 13 12 11 10 10 10 10 10 9 6 4 4 4 4 6 8 9 10 11 10 7 4 2 1 1 1 1 2 3 4 6 7 8 8 7 6 8 9 8 7 5 3 3 3 4 5 5 5 6 7 7 6 6 6 6 7 8 8 7 6 5 5 7 8 9 10 10 10 12 13 15 16 15 15 15 13 12 13 14
12 12 12 12 11 10 11 12 12 11 10 10 9 10 10 8 7 8 8 8 8 8 8 7 8 8 7 6 4 3 3 4 4 3 2 4 5 6 7 8 8 7 8 8 7 6 4 2 2 3 4 5 6 7 8 8 8 7 6 6 6 7 7 7 5 4 4 5 6 8 9 10 10 11 13 15 15 15 14 14 14 12 11 12 12
11 9 9 9 9 8 8 9 10 11 11 11 9 9 10 9 8 8 9 9 8 7 7 6 6 8 11 12 12 12 13 13 12 10 9 9 9 8 7 8 8 6 5 4 4 3 2 3 4 4 4 5 5 7 7 7 8 7 6 5 5 5 5 4 4 3 3 4 6 6 7 9 11 12 13 14 14 14 14 13 12 12 13 14 15
9 9 9 8 7 7 7 8 9 11 12 15 14 12 12 12 11 10 8 8 6 4 5 5 5 8 13 15 15 14 13 12 11 11 11 11 11 10 9 8 7 5 3 2 1 1 3 5 6 6 7 6 5 5 6 7 7 7 6 6 6 4 3 4 3 2 2 4 5 6 8 10 12 11 12 13 14 14 14 14 14 15 16 16 16
6 6 9 11 9 9 10 11 12 12 13 16 18 16 13 13 14 12 11 11 10 9 7 6 5 8 12 12 11 9 8 6 6 7 8 8 8 7 7 6 4 2 1 2 4 5 5 5 7 8 7 5 5 6 6 6 7 8 7 6 5 4 4 5 3 2 5 6 7 8 11 12 11 11 12 13 14 15 16 18 19 18 18 18 18
9 7 9 11 10 12 14 14 13 13 13 15 17 17 15 14 12 11 11 12 13 15 15 14 13 12 12 11 10 9 7 6 5 5 5 5 5 5 4 2 1 3 5 7 7 8 7 7 8 9 8 6 7 8 8 8 8 8 6 5 5 5 3 3 6 9 9 9 9 10 11 11 11 12 14 14 15 17 18 19 19 19 20 20 20
13 12 12 12 10 12 16 15 13 13 13 12 13 14 16 15 13 11 10 10 11 12 13 13 13 13 12 12 10 9 7 5 4 4 4 3 3 3 2 2 4 6 7 9 9 9 9 9 8 8 8 8 9 9 9 8 6 5 4 4 2 2 7 11 11 10 11 11 10 10 11 11 12 14 15 16 17 19 18 17 19 20 21 20 20
11 12 13 14 14 14 17 16 15 15 14 13 12 12 12 14 14 12 10 9 8 8 9 9 8 8 8 8 6 4 4 4 4 5 4 4 3 3 3 4 5 6 8 10 10 10 10 9 8 8 10 12 15 15 15 13 9 7 4 1 6 10 11 11 11 12 12 11 10 11 12 13 13 15 17 18 18 18 17 18 20 21 21 21 21
8 8 9 12 13 13 14 14 13 13 13 12 11 10 9 11 12 11 9 9 9 8 7 7 6 4 4 5 4 4 4 4 5 5 5 4 3 3 4 4 6 6 7 9 10 11 11 10 10 13 16 17 17 14 11 7 3 2 7 11 12 11 11 12 13 13 11 10 11 13 14 14 14 16 18 18 17 17 17 18 20 20 20 21 20
5 5 6 8 8 7 9 10 10 11 11 10 9 8 7 8 10 9 8 8 9 9 9 8 7 7 6 6 6 6 6 5 5 5 5 4 4 4 4 5 6 7 8 9 9 10 10 10 13 17 18 17 17 16 15 14 13 14 15 15 12 11 12 13 13 12 11 11 13 15 16 15 14 16 17 16 15 16 17 18 19 20 20 20 20
6 6 6 8 7 7 7 8 8 10 10 8 8 6 4 5 6 5 4 5 6 8 9 9 9 9 8 9 9 9 8 8 7 6 5 4 4 4 4 5 6 7 7 8 8 9 9 10 12 15 16 16 18 18 18 17 15 14 14 13 12 12 13 13 12 12 13 14 15 16 16 13 12 14 15 14 14 16 17 18 19 20 21 21 20
6 6 6 7 7 7 8 8 8 9 9 8 8 7 5 4 3 0 1 2 4 5 7 8 8 7 7 8 10 11 11 11 12 10 6 4 4 4 4 4 5 4 4 6 7 8 9 9 10 12 12 13 15 15 16 16 15 14 13 14 15 15 14 13 12 12 13 14 14 14 13 12 13 13 13 13 14 16 17 18 18 19 19 20 20
6 6 7 7 7 6 5 6 6 7 7 7 7 7 7 5 1 2 5 5 4 5 6 6 5 5 7 8 10 11 13 15 16 13 8 4 3 4 5 3 2 3 6 7 7 8 9 10 11 12 12 13 15 15 15 16 15 14 13 12 11 12 11 10 10 11 11 11 12 13 14 14 12 11 11 12 14 15 16 17 17 17 18 20 21
9 10 8 6 5 4 3 3 4 3 3 4 5 7 6 4 2 1 1 2 3 6 6 4 3 5 7 9 10 10 12 14 16 15 11 7 7 8 8 6 5 9 11 10 7 6 9 12 13 14 14 16 17 16 15 16 16 16 15 13 12 11 11 11 11 11 10 10 11 13 14 14 13 12 13 14 14 15 16 17 16 18 20 21 21
8 9 6 4 5 4 2 2 4 3 3 5 6 5 4 3 3 3 3 4 4 3 5 5 5 6 7 8 10 10 11 13 14 14 13 12 12 12 12 10 11 14 15 11 7 8 12 14 14 15 15 16 16 16 16 15 15 15 15 14 14 13 13 14 14 12 11 10 11 12 14 15 16 17 17 17 17 18 19 19 19 20 20 20 20
8 9 8 7 8 6 4 3 3 4 5 7 7 5 4 3 3 3 3 4 4 3 1 5 8 7 8 8 9 9 8 8 10 11 12 12 14 15 15 14 14 16 16 14 12 12 13 14 14 15 15 15 15 15 15 15 15 14 14 13 13 14 14 14 15 14 14 14 14 14 14 15 17 18 18 18 19 19 20 20 20 20 20 20 19
10 11 11 10 8 8 7 5 2 0 1 2 3 3 3 3 2 2 3 4 3 4 3 5 8 9 9 7 7 7 6 5 8 10 9 9 11 12 13 14 17 18 18 18 17 16 15 15 14 14 15 15 15 14 14 14 14 14 14 13 13 13 13 13 15 16 16 16 17 16 16 16 17 18 19 19 19 20 20 20 21 21 21 21 20
12 12 11 10 9 9 8 7 5 3 1 0 2 4 4 3 3 3 4 4 5 6 7 11 12 11 9 6 6 7 6 6 8 8 7 7 9 10 10 12 16 18 18 17 18 18 18 16 15 14 14 14 14 14 13 13 13 13 14 13 13 13 14 15 16 16 16 16 16 16 16 17 17 17 18 18 19 20 20 20 20 21 21 21 20
14 12 11 10 10 9 8 7 6 4 2 2 4 4 3 3 3 3 3 4 5 6 6 9 11 10 7 7 9 10 8 8 8 7 7 9 10 10 11 13 14 16 16 16 16 16 17 17 17 16 15 15 15 14 14 13 13 13 13 14 14 14 13 13 13 14 14 14 14 15 16 16 17 17 17 18 19 20 20 20 20 21 21 21 21
14 13 12 11 10 9 8 7 5 4 3 3 3 2 2 2 2 3 3 3 5 6 6 7 7 6 6 8 10 10 9 8 8 8 9 10 11 11 13 14 13 13 14 15 14 14 14 15 15 15 15 15 15 15 15 14 13 13 13 13 12 11 11 12 13 14 14 13 14 14 15 16 17 17 18 18 19 19 20 21 22 22 22 22 22
11 12 14 12 9 8 7 5 5 6 6 3 1 0 1 2 2 3 3 3 4 4 4 5 4 4 5 7 9 8 7 8 8 9 10 11 10 10 11 13 13 13 13 13 13 13 13 13 13 13 14 14 13 14 14 14 13 13 12 11 10 10 11 12 13 13 13 14 15 16 17 17 18 18 18 18 19 19 20 21 21 22 22 21 22
8 8 11 11 9 7 6 4 4 6 6 4 3 3 3 2 2 1 1 2 2 2 3 3 2 1 3 7 8 7 5 5 6 8 10 11 11 10 10 11 12 11 11 11 11 11 11 12 12 11 11 12 11 12 13 13 13 11 10 9 9 10 11 12 12 13 15 16 17 17 18 18 18 18 18 18 19 20 20 20 20 21 21 21 22
12 8 7 7 5 5 4 3 4 5 5 4 5 4 1 1 2 1 2 2 2 1 2 3 3 3 4 6 7 5 4 5 6 7 7 8 10 11 10 10 10 10 10 10 10 9 10 11 11 10 10 10 10 10 11 12 12 11 10 9 10 11 12 12 14 15 17 18 18 19 19 19 20 20 20 20 20 20 20 20 21 22 23 24 24
17 13 9 6 3 3 3 3 3 2 3 3 2 1 1 1 1 1 1 2 2 1 2 4 6 7 6 6 6 6 6 8 8 8 7 6 7 8 9 8 8 9 9 9 8 8 9 9 10 11 11 11 10 10 11 11 11 10 9 9 10 12 13 13 15 16 18 19 20 20 20 21 22 22 22 21 21 21 22 22 23 23 23 23 23
13 12 11 8 5 6 7 8 7 5 4 4 3 2 2 2 2 1 1 1 1 3 2 3 4 4 4 4 5 5 6 7 8 8 8 6 6 7 8 8 7 7 8 8 7 7 7 8 8 10 11 11 9 9 9 9 8 8 8 9 10 12 13 14 16 17 18 18 19 20 21 22 23 23 22 21 21 21 21 22 22 22 22 22 22
6 5 8 6 3 5 6 9 9 8 8 8 6 3 2 2 3 3 2 2 2 3 3 3 4 3 3 3 4 5 6 7 7 8 8 7 6 7 7 7 6 6 7 7 7 7 7 7 7 9 10 9 7 7 8 8 7 7 9 10 11 13 15 16 16 17 18 18 19 21 21 21 22 22 21 20 19 19 20 21 21 21 21 20 20
5 2 5 4 4 6 2 4 7 8 7 6 5 3 3 1 2 4 4 4 4 4 3 3 4 4 4 6 7 8 7 6 5 6 7 7 8 7 7 6 6 7 7 7 7 7 7 6 7 8 9 8 7 6 8 9 9 9 10 12 13 14 15 15 16 17 18 19 20 20 20 21 22 22 21 21 20 20 21 21 21 20 19 17 18
5 2 2 3 2 2 3 3 4 3 3 2 2 2 3 3 2 1 2 2 3 3 3 3 4 4 5 6 6 7 6 5 5 5 5 6 6 7 7 8 7 7 6 6 7 7 6 6 7 8 8 7 7 7 8 10 10 10 12 14 14 14 14 15 16 17 19 19 20 20 21 22 23 22 22 22 22 22 22 21 20 19 18 18 19
5 2 1 1 1 1 2 3 4 6 7 7 6 6 6 5 4 3 2 1 1 2 2 2 3 4 5 6 6 5 5 5 4 5 5 4 4 6 7 8 8 7 6 6 6 6 6 7 8 8 7 7 6 7 8 9 10 11 13 14 13 12 14 15 16 18 19 21 22 22 23 23 23 22 22 23 23 22 22 21 20 18 17 16 17
6 4 3 0 1 3 4 4 4 4 6 6 5 4 6 7 8 8 7 6 5 5 4 4 4 4 4 5 5 5 5 4 3 4 5 5 5 5 6 7 8 8 7 6 6 6 6 7 7 7 7 7 6 6 8 10 11 12 12 12 11 13 15 16 18 20 21 23 24 24 23 23 22 22 23 24 23 21 19 18 16 16 15 14 15
Wind_Direction
191 192 193 194 196 198 199 200 201 201 205 206 201 201 203 202 203 206 205 204 204 206 206 204 204 207 206 204 208 213 210 208 211 217 221 222 220 222 230 236 237 235 231 225 234 260 255 239 238 244 250 255 253 251 247 242 245 254 255 254 252 241 237 240 241 260 283 298 310 317 325 327 327 331 330 327 330 329 323 325 329 328 327 328 330
191 193 193 194 198 198 198 201 201 203 208 209 207 206 207 208 207 207 206 206 207 211 210 205 204 207 209 207 209 216 215 208 210 217 219 218 218 222 230 236 235 234 235 227 222 242 251 242 239 245 250 253 254 253 254 256 253 248 243 244 248 242 231 240 246 252 272 290 307 315 321 324 322 328 332 327 325 324 320 324 331 331 331 332 331
192 191 191 195 198 196 197 200 201 204 209 212 213 211 210 212 212 209 206 206 211 213 207 201 204 209 211 212 214 217 217 211 209 215 218 220 223 226 229 235 236 233 233 229 226 235 244 242 242 247 251 253 257 255 251 261 259 247 242 250 253 250 245 247 249 248 262 282 301 309 314 316 317 323 329 327 328 333 335 337 338 336 336 335 334
192 191 191 195 197 195 195 198 201 203 208 211 212 211 211 213 214 214 211 210 211 211 206 203 209 213 211 212 216 216 215 213 210 212 219 223 226 228 227 231 238 237 234 236 238 238 239 242 245 248 252 254 262 261 243 246 256 251 251 258 260 258 256 250 247 250 262 281 295 303 309 314 318 324 327 328 334 340 342 342 341 339 340 339 337
190 189 190 193 196 196 195 197 199 201 205 211 213 212 213 214 213 212 210 209 211 211 211 210 213 215 212 210 213 214 212 214 211 211 219 226 228 229 227 229 235 238 237 236 238 240 241 246 248 249 253 254 260 264 254 251 256 255 257 267 275 271 262 262 266 266 275 288 297 308 316 318 320 322 324 330 337 339 339 340 341 342 341 337 335
190 187 187 191 193 193 196 198 199 200 203 208 213 213 215 217 215 209 205 209 215 213 212 213 212 213 213 210 211 213 213 214 213 211 215 224 230 233 233 233 235 237 238 235 234 237 239 242 245 245 246 249 253 255 254 257 260 261 266 270 275 273 270 282 288 282 289 299 305 312 315 315 315 318 326 335 337 339 340 337 336 337 336 335 335
187 185 185 188 189 192 196 199 202 205 205 207 213 216 217 220 219 213 206 207 214 214 212 211 210 211 213 211 212 215 214 214 215 216 216 221 229 234 234 234 237 240 242 240 239 242 243 243 246 248 247 249 253 253 247 247 257 270 270 256 248 257 268 281 282 283 294 302 303 304 304 308 312 316 326 331 330 335 339 336 332 331 334 336 335
180 182 183 184 185 188 192 193 197 206 208 208 215 221 222 221 222 222 214 206 209 213 210 208 210 212 214 213 212 214 218 219 217 217 219 222 228 234 235 234 236 238 238 236 240 247 250 252 254 256 258 257 257 256 250 244 247 257 254 240 243 260 272 281 284 286 293 295 296 300 303 308 313 318 323 325 327 331 332 331 329 329 332 335 335
176 179 180 180 181 184 188 187 189 198 206 210 217 224 227 226 228 232 219 207 207 212 212 208 208 212 217 220 217 215 217 219 218 218 221 224 225 229 236 239 236 234 235 236 241 246 248 257 262 261 265 265 255 254 254 250 244 245 244 247 260 271 275 279 279 278 282 287 290 295 300 304 309 317 322 322 323 321 320 323 325 327 330 331 332
170 168 166 170 180 187 191 193 196 202 209 216 221 218 218 222 224 219 207 205 207 211 217 216 210 215 225 236 247 246 236 227 223 221 222 224 224 224 232 238 231 228 235 242 248 253 252 260 268 266 265 259 247 248 256 256 250 248 250 256 266 274 275 275 276 278 280 279 281 286 290 295 301 308 313 312 309 310 316 321 323 325 329 329 329
77 114 136 161 181 188 191 195 201 209 215 222 227 219 212 214 215 204 191 199 205 208 216 221 220 223 222 222 242 265 260 245 229 221 223 227 225 222 222 224 224 229 239 242 247 255 256 257 264 269 267 260 255 260 264 257 252 253 258 261 265 270 271 274 279 283 281 278 281 284 285 289 296 301 303 302 303 308 315 319 319 321 326 328 323
39 62 105 178 198 194 191 199 206 212 220 227 231 227 219 215 216 214 204 200 205 209 217 223 225 228 227 225 234 245 245 249 244 229 228 232 226 221 219 221 225 228 234 243 252 260 265 265 264 265 263 261 267 277 267 251 251 255 257 256 257 261 265 272 279 283 284 283 284 285 286 292 297 301 303 302 304 309 312 313 314 314 317 319 310
67 74 109 182 212 214 197 199 211 215 220 228 231 230 228 225 224 225 223 221 222 219 217 217 215 219 225 229 229 225 231 248 250 238 236 235 227 223 223 223 223 220 225 245 262 266 266 264 262 258 251 250 257 261 255 257 266 266 258 252 252 256 262 270 277 282 288 289 287 288 292 296 300 305 308 305 305 309 309 308 309 310 311 312 308
72 84 109 141 195 233 237 205 212 217 219 225 229 226 222 226 234 233 234 239 238 227 208 192 193 202 215 225 224 225 235 247 251 244 237 234 236 236 231 226 222 222 224 234 245 250 253 261 267 265 252 249 257 266 271 277 280 277 271 263 261 264 269 276 282 287 294 294 290 292 297 298 299 300 300 300 302 306 307 306 307 308 307 310 313
55 64 82 105 140 212 241 215 211 234 245 241 239 232 210 176 285 258 243 247 251 233 191 186 196 201 208 218 222 226 234 240 244 244 238 239 251 253 239 227 221 222 217 217 228 239 250 266 272 270 266 268 275 277 276 277 272 262 253 254 270 281 287 295 300 299 298 293 290 295 298 297 295 293 296 300 301 303 304 303 305 307 309 315 321
48 49 48 54 75 130 235 197 157 245 275 270 268 267 232 213 263 273 246 246 252 220 191 193 197 201 203 206 215 222 228 232 237 240 241 247 254 249 230 219 217 222 225 229 236 241 248 259 264 267 273 277 279 279 278 277 267 251 238 237 257 279 295 302 300 292 284 276 276 282 285 288 293 297 301 302 302 304 305 304 309 316 320 322 324
60 56 54 52 52 50 38 33 124 216 242 238 230 236 178 195 224 237 226 225 233 225 226 221 211 203 192 192 211 222 225 228 232 231 230 235 238 230 213 208 212 217 221 229 240 247 253 258 261 265 271 273 275 276 277 279 278 272 268 268 273 283 291 289 280 270 264 264 268 276 285 293 299 302 305 308 309 309 305 305 317 333 329 322 320
70 70 71 74 76 77 78 75 82 180 211 228 233 222 154 162 188 203 210 220 224 227 234 231 224 207 155 189 219 228 229 230 233 230 225 223 222 217 207 204 209 215 219 228 240 249 253 256 257 259 258 259 264 269 274 282 287 290 292 294 297 296 286 278 276 272 270 273 279 287 295 304 311 318 328 335 334 327 321 328 349 353 340 335 334
71 80 78 75 77 81 83 81 73 72 78 82 152 235 241 247 255 251 242 243 249 260 262 261 261 256 185 201 220 226 227 234 240 239 235 230 224 221 218 215 216 217 222 232 240 240 240 241 238 235 239 247 257 267 279 288 294 300 302 304 305 296 279 279 286 289 290 291 294 302 317 336 348 352 359 10 18 23 28 25 15 5 358 353 346
69 83 79 72 70 74 82 84 73 60 56 57 64 95 191 224 251 266 268 265 251 241 240 238 238 232 214 213 222 229 229 234 241 243 243 240 231 222 218 219 221 219 215 216 216 214 218 224 221 222 231 244 259 274 286 293 297 300 297 295 296 291 286 290 296 302 306 308 315 337 351 358 4 7 12 20 26 24 19 9 359 359 2 354 346
65 72 74 71 65 64 75 89 87 73 59 52 53 66 91 109 122 153 210 40 96 121 134 143 153 168 185 198 211 230 238 230 230 232 236 235 225 214 206 200 200 204 201 196 193 191 198 214 228 235 239 243 254 270 277 281 284 284 284 288 291 290 293 299 307 315 326 342 2 8 6 7 11 9 5 6 5 0 355 349 347 352 356 348 341
62 68 72 69 60 57 66 78 87 85 75 65 60 59 61 66 82 101 114 110 106 111 115 121 130 135 131 120 118 154 212 212 201 202 202 197 194 195 189 179 174 179 180 178 178 178 180 198 226 238 241 245 253 258 258 261 264 268 275 279 277 281 288 297 310 328 355 16 16 16 21 20 14 3 354 350 349 348 348 345 344 346 346 344 341
63 63 66 65 59 61 67 72 78 81 76 71 73 71 67 69 81 89 93 99 104 114 120 120 125 125 112 98 90 89 99 91 76 79 125 139 146 156 156 151 148 151 149 144 143 149 156 190 247 253 252 250 253 259 261 264 268 272 273 268 269 279 288 298 317 340 5 12 12 21 27 18 6 356 348 345 347 350 350 348 348 351 350 347 340
63 57 60 62 59 65 75 75 72 69 63 61 72 84 80 74 76 79 81 84 91 108 127 130 123 111 102 100 96 90 86 82 75 70 72 75 78 81 93 108 112 109 108 111 117 136 199 248 257 269 281 278 268 265 265 267 275 279 273 264 270 282 296 316 336 349 355 4 19 33 28 13 4 359 355 353 352 351 349 349 351 352 346 339 332
61 64 71 69 57 60 71 69 61 57 54 53 57 67 72 66 60 59 64 67 70 98 143 153 146 129 117 109 100 89 79 74 72 72 70 66 65 67 73 83 84 76 69 74 51 300 280 268 269 287 301 298 286 280 277 277 282 280 270 266 273 283 308 332 333 327 357 35 52 40 20 13 12 8 1 355 352 352 353 352 348 344 341 340 341
71 76 80 77 71 66 65 64 63 65 67 64 61 58 57 55 53 54 58 58 55 61 78 85 107 136 136 124 110 99 88 80 81 81 78 76 74 74 78 83 83 67 16 327 313 307 299 285 284 295 305 302 285 281 281 280 283 285 276 264 264 278 303 323 343 60 72 67 56 30 18 19 16 4 356 354 356 360 358 352 347 349 352 352 352
88 103 99 89 82 76 74 75 79 78 77 76 70 61 50 43 38 38 45 54 58 62 66 66 75 97 115 120 123 124 117 107 98 87 80 81 76 68 70 70 351 310 311 315 316 318 316 308 299 298 302 301 290 282 278 275 278 281 270 254 273 301 332 70 95 93 77 57 39 28 23 19 8 360 1 4 4 2 359 354 353 357 358 356 353
87 98 100 94 89 84 81 83 89 86 81 82 77 64 54 49 42 34 32 39 48 56 65 74 81 90 100 111 119 118 104 90 80 63 51 49 40 23 7 334 311 308 312 314 318 323 324 323 322 318 317 317 313 303 296 290 275 258 256 270 307 59 106 113 102 77 54 39 33 29 21 13 8 7 9 8 6 2 359 358 358 357 358 357 354
88 91 91 87 85 85 83 85 90 89 84 81 76 67 61 58 54 46 38 37 43 55 73 89 95 99 104 107 104 84 60 43 25 14 7 359 349 331 315 309 306 310 319 322 324 330 333 336 344 348 344 336 325 313 304 294 273 250 248 110 105 106 102 90 66 48 43 41 36 29 21 15 13 11 8 6 4 3 1 1 0 359 358 357 354
84 85 91 89 87 83 79 80 85 87 84 79 77 80 84 78 69 59 51 49 50 52 61 74 81 84 93 95 77 38 23 14 4 359 354 348 342 328 313 307 305 307 314 318 324 335 343 348 356 359 356 350 345 341 334 320 292 127 97 94 97 89 71 60 53 49 48 44 37 28 19 13 10 7 4 2 2 4 5 4 2 360 359 358 357
70 69 81 88 90 90 86 83 86 89 85 77 76 87 104 100 88 78 71 69 66 62 61 63 60 49 45 53 53 37 21 9 358 353 350 345 340 330 318 311 306 306 310 314 325 342 352 355 1 6 10 16 29 44 61 74 82 87 89 90 85 69 58 57 54 50 47 43 34 22 14 11 9 3 359 358 2 6 7 6 5 4 3 2 1
101 92 90 88 86 92 101 104 103 100 93 80 71 75 113 128 110 91 86 96 92 86 83 78 71 60 51 47 44 38 32 22 8 351 334 327 326 323 317 311 305 304 311 319 332 350 358 360 4 12 23 36 46 54 62 68 69 71 76 80 75 61 53 53 54 53 48 39 27 17 12 9 360 351 351 356 2 6 7 5 4 3 1 1 3
121 110 107 101 93 92 98 102 102 101 103 100 86 74 89 119 115 77 231 166 135 125 113 99 86 77 67 54 47 46 43 34 21 6 344 321 312 314 320 321 315 320 333 338 343 353 2 4 2 6 21 38 47 51 55 55 55 57 64 72 72 65 61 63 64 58 48 36 25 14 5 352 339 340 353 6 10 10 8 3 360 360 2 4 5
135 127 115 101 91 88 92 99 102 100 106 116 104 86 87 92 61 269 239 222 207 184 153 125 110 102 83 65 56 54 48 38 29 21 12 3 352 348 352 356 2 2 351 338 335 347 1 8 7 8 24 42 49 51 53 51 48 46 47 54 58 55 53 50 44 37 32 25 17 7 355 344 338 345 359 6 4 2 0 360 1 6 9 6 360
126 126 120 108 104 106 102 107 110 107 118 128 115 101 100 85 41 20 234 256 233 203 181 154 140 131 101 74 62 57 46 36 32 28 23 24 19 13 18 29 24 8 356 343 334 356 25 39 42 43 48 53 54 53 54 54 53 49 43 37 33 28 24 19 13 9 6 6 11 10 4 1 3 6 6 3 1 359 360 4 8 8 4 359 354
139 135 130 135 141 147 141 96 84 84 121 130 116 104 97 70 55 62 55 51 67 129 165 173 177 155 118 87 71 62 43 29 28 28 27 29 25 16 15 13 3 4 11 20 38 58 60 58 55 52 52 52 53 52 51 50 52 52 50 46 40 32 25 20 13 9 12 21 25 22 18 16 16 15 15 15 12 10 8 7 5 1 357 355 351
183 177 175 167 152 145 147 128 84 79 107 121 120 115 107 89 72 52 42 57 58 41 197 201 196 167 125 95 74 63 45 18 7 9 18 32 33 25 24 23 16 18 34 53 67 71 66 58 51 49 47 44 44 46 45 43 42 43 46 48 47 42 40 39 35 34 37 39 35 28 23 20 16 14 16 16 12 8 6 3 1 358 355 353 349
187 182 186 188 180 167 160 163 176 146 113 121 130 130 118 106 93 48 45 57 38 21 61 142 163 152 128 97 63 59 53 16 356 353 3 27 34 28 31 37 36 37 48 60 63 61 60 59 56 55 51 45 40 38 36 34 32 30 29 32 34 35 37 36 33 31 31 30 27 24 22 20 17 14 14 14 11 7 4 2 0 357 354 352 350
193 189 191 196 196 186 175 174 182 189 195 189 151 136 115 93 90 80 61 48 32 38 81 114 126 129 124 93 51 42 40 27 16 11 17 32 34 28 31 39 40 43 50 57 58 56 55 53 51 52 51 47 42 38 32 27 25 23 21 19 17 17 20 21 21 23 24 23 21 20 19 17 15 13 14 15 13 9 6 5 4 1 357 354 352
204 204 202 200 201 199 192 187 187 190 197 180 157 138 108 75 72 75 64 46 37 48 86 116 117 108 92 60 37 30 33 40 43 41 43 47 51 52 47 42 43 48 50 52 55 57 55 53 52 52 51 47 42 37 28 21 17 16 15 14 13 16 21 24 24 23 23 20 17 16 15 13 10 8 8 8 5 2 1 359 358 357 354 350 348
215 216 211 206 206 208 203 194 191 197 199 188 172 141 103 95 97 94 88 69 51 58 87 114 111 87 59 38 29 29 40 53 57 57 57 58 62 60 48 40 43 49 49 47 49 51 49 47 48 50 48 46 43 39 31 24 21 17 12 13 18 25 28 26 23 22 22 20 16 11 7 4 1 360 359 357 354 352 350 348 345 344 343 342 341
235 226 217 211 207 204 202 203 205 207 205 202 227 307 123 124 110 91 76 51 31 44 85 107 104 72 45 42 45 53 65 65 59 59 59 56 56 56 50 47 52 54 49 46 47 46 42 39 38 40 40 37 36 36 33 29 24 19 15 17 24 29 28 25 24 24 23 18 11 5 1 360 359 358 358 356 352 349 345 342 339 336 333 332 332
244 226 212 210 205 192 188 190 182 178 174 158 136 133 132 113 80 50 27 12 11 35 64 74 75 52 55 61 64 68 70 62 56 60 63 60 58 55 50 48 50 48 43 41 41 41 40 38 35 34 33 31 31 33 31 23 18 19 24 30 33 33 32 30 26 21 15 10 6 4 3 2 0 358 356 353 348 344 341 337 334 331 327 324 321
220 206 185 182 180 173 174 166 136 129 133 147 154 151 134 7 350 333 314 321 335 357 29 41 60 81 78 65 54 48 58 74 74 71 68 60 53 47 42 42 44 42 38 35 34 32 33 34 32 28 23 18 20 25 21 12 10 18 27 31 34 36 36 31 22 14 8 5 3 2 1 359 357 354 350 346 342 338 334 330 326 323 320 317 315
220 217 205 198 207 210 210 219 218 198 179 170 162 111 6 342 322 297 292 319 358 73 89 69 68 71 67 54 39 41 64 78 73 61 54 45 36 32 29 30 35 36 33 30 30 28 28 29 28 26 19 12 12 18 11 360 3 19 27 25 28 31 28 20 12 5 360 358 358 358 356 354 350 346 342 336 331 327 323 320 318 316 314 313 313
223 222 212 211 235 242 228 225 230 227 191 155 135 81 47 40 22 360 292 309 49 78 79 44 33 35 31 23 20 35 64 73 63 55 55 57 49 36 27 23 26 28 25 23 21 18 18 21 21 18 14 9 13 24 16 359 0 22 27 18 16 17 13 8 3 359 357 357 356 355 352 348 344 339 334 328 323 320 318 316 315 313 312 311 311
209 200 179 183 263 289 246 210 192 174 156 147 145 137 99 59 36 40 66 66 38 30 19 6 2 1 11 35 49 61 74 76 64 54 53 51 42 31 22 20 21 19 17 20 19 12 10 11 8 6 4 1 8 23 19 4 3 17 16 9 7 5 2 360 358 356 355 355 352 348 345 341 336 333 329 325 321 318 316 315 313 312 311 311 310
201 185 172 195 294 322 307 173 163 163 167 175 186 198 192 155 54 45 58 65 57 55 60 56 52 57 67 71 67 64 65 63 52 43 42 42 38 29 18 11 8 4 3 6 6 4 9 9 358 354 357 360 5 13 4 353 354 3 4 2 2 359 355 353 352 349 348 345 341 337 335 333 331 329 327 324 321 317 314 312 310 308 308 309 309
209 257 243 239 297 1 47 78 88 98 113 134 156 180 190 188 175 68 59 66 56 49 47 50 56 61 62 59 54 50 48 50 45 37 33 35 35 29 20 15 11 6 3 2 359 357 1 358 352 355 2 8 14 15 356 339 339 349 353 355 356 354 350 347 345 341 338 335 332 330 329 328 327 325 323 322 320 316 313 311 309 305 303 303 303
197 229 253 288 357 30 60 68 66 67 70 77 87 88 86 88 90 84 77 39 341 344 15 46 62 66 62 57 50 41 38 43 49 43 30 19 13 13 14 15 13 5 358 357 356 353 350 345 344 350 354 352 359 7 354 337 335 343 349 350 349 345 342 340 337 335 332 329 327 326 325 324 324 323 321 321 320 316 312 309 307 304 301 301 302
187 193 193 158 62 86 93 87 84 80 70 66 71 80 75 68 64 64 67 68 63 57 60 63 63 65 67 62 50 34 26 30 41 36 22 8 358 354 355 359 1 0 356 349 343 344 346 343 341 342 344 342 342 346 342 339 342 347 347 344 339 335 333 333 331 330 328 326 324 324 324 323 322 320 320 321 320 315 309 305 304 303 302 301 301
Height
830 832 834 836 838 839 841 843 844 846 847 848 849 850 851 852 853 854 855 857 858 859 860 860 861 863 864 865 866 866 867 868 868 869 869 870 870 871 871 871 871 871 871 872 872 872 872 872 872 872 872 872 872 872 872 872 872 871 871 871 870 870 870 870 870 868 866 867 867 866 865 865 863 862 861 860 859 859 857 856 855 854 852 850 848
828 830 832 834 836 837 839 841 843 844 845 847 848 849 850 851 852 853 854 855 856 857 858 859 860 861 862 863 864 865 865 866 867 868 868 869 869 870 870 870 871 871 871 871 871 871 872 872 872 872 872 872 871 871 871 871 872 871 871 870 870 869 869 869 868 866 865 865 865 865 864 863 863 861 860 859 858 857 856 855 854 852 851 849 847
825 828 830 832 834 835 837 839 841 843 844 845 846 847 849 849 850 851 852 854 854 855 857 857 858 859 860 862 862 863 864 865 866 866 867 867 868 868 869 869 870 870 870 870 870 871 871 871 871 871 871 871 870 871 871 871 871 870 869 869 868 868 868 867 866 866 865 864 864 864 863 863 862 860 859 858 857 856 855 853 852 851 850 848 846
822 825 827 830 832 834 835 837 839 841 842 843 844 845 847 848 849 850 851 852 853 854 855 856 857 858 859 860 860 861 862 863 864 865 865 866 867 867 868 868 869 869 869 869 870 870 870 870 870 870 870 870 870 870 870 870 869 869 868 868 867 867 867 867 866 866 866 865 864 863 863 862 861 860 858 857 856 855 854 852 851 850 848 847 845
819 821 824 827 829 831 833 835 837 838 840 841 842 843 845 846 847 848 849 850 851 852 853 854 855 856 857 858 859 859 860 861 862 863 864 865 865 866 867 867 868 868 868 869 869 869 869 869 869 869 869 869 869 869 869 868 868 867 867 867 867 866 866 866 866 866 866 865 864 863 863 862 860 859 858 856 855 854 852 851 850 848 846 845 843
815 818 821 824 827 829 831 833 835 836 838 839 840 842 843 844 844 845 847 848 849 850 851 852 853 854 855 856 857 857 858 859 860 861 862 863 864 865 865 866 867 867 867 867 867 868 868 867 868 868 868 868 868 868 867 867 867 866 866 866 866 866 866 866 865 865 865 864 863 862 862 861 860 858 857 856 854 852 851 849 848 847 845 843 841
813 815 818 821 824 827 829 831 833 835 836 837 839 840 841 842 842 843 844 846 847 848 848 850 851 851 852 853 854 855 856 857 858 859 861 861 862 863 864 865 865 865 866 866 866 866 866 866 866 866 866 866 867 866 866 865 866 865 865 865 865 865 865 865 864 864 864 863 862 862 861 860 859 857 856 855 853 852 850 847 845 844 844 842 840
812 814 817 819 822 824 826 829 831 833 835 836 837 838 839 840 841 841 842 843 844 846 846 847 848 849 850 851 852 853 854 855 856 857 858 860 861 861 862 863 863 864 864 865 865 865 865 864 864 864 864 865 865 865 864 864 864 864 864 864 864 864 864 863 863 863 862 862 862 861 860 859 858 857 855 854 852 851 849 848 845 843 842 841 840
812 814 816 818 820 822 824 826 828 831 832 834 835 837 837 838 839 839 840 841 843 844 845 846 846 847 848 849 850 850 851 852 853 855 856 857 858 860 860 861 861 862 862 863 863 864 863 863 863 863 863 863 862 862 863 863 862 862 862 862 862 862 862 862 862 862 861 861 861 860 859 858 857 856 854 853 852 850 849 847 845 843 841 840 839
813 814 816 817 818 820 822 824 826 828 830 832 834 834 835 836 837 837 838 839 841 842 844 844 843 844 846 848 850 850 851 851 851 853 854 855 856 857 858 859 859 860 861 861 862 862 862 862 861 861 862 861 860 860 860 861 860 860 861 861 861 861 861 861 860 860 860 859 859 858 857 856 856 855 854 852 851 849 848 846 844 842 840 838 836
819 818 817 818 819 820 822 823 825 827 828 830 832 833 834 834 835 836 837 837 838 840 841 841 842 843 845 847 849 851 852 851 851 851 852 853 854 855 856 857 857 858 859 860 860 860 860 860 860 860 860 859 859 859 859 859 859 859 859 859 859 859 859 859 859 858 858 857 857 857 856 855 854 854 852 851 850 848 847 846 844 842 840 838 835
824 824 823 822 821 821 822 824 825 826 827 829 830 831 832 833 833 834 835 835 837 838 839 839 840 841 844 845 847 849 850 850 849 850 851 852 853 853 854 855 855 856 857 857 858 858 858 858 858 858 858 857 857 857 857 857 858 857 857 857 858 858 858 857 857 856 856 856 855 855 854 853 852 852 851 850 848 847 846 845 843 841 840 839 837
823 827 828 826 822 821 823 824 825 826 827 828 829 830 831 832 832 833 833 834 835 837 838 838 839 840 841 843 845 846 847 848 847 848 849 849 850 851 852 853 853 854 855 855 856 856 856 856 856 856 856 855 855 855 855 856 856 856 856 856 856 856 856 856 855 855 854 854 853 853 852 852 851 850 850 849 847 846 844 843 842 841 839 838 836
823 826 829 829 827 824 824 824 825 826 826 827 828 828 830 831 832 832 833 833 834 835 836 837 839 840 840 842 844 844 845 846 846 846 847 847 848 849 850 851 852 852 853 853 853 853 854 854 854 854 854 853 854 854 854 854 854 854 854 854 855 855 854 854 854 853 853 852 852 851 851 851 850 849 849 848 846 845 843 841 840 839 838 837 835
823 825 827 830 831 828 826 825 825 826 826 826 827 827 829 830 832 832 832 833 834 834 835 836 838 839 840 841 842 842 843 844 844 844 845 845 846 847 847 849 850 850 850 851 851 851 851 851 852 852 852 852 853 853 853 853 852 852 852 853 853 853 853 853 852 852 852 851 850 850 849 849 849 848 847 846 845 844 842 840 839 837 836 835 834
824 824 825 828 830 829 828 826 826 827 827 826 826 827 829 831 833 832 832 832 833 833 834 836 836 838 839 840 840 841 841 842 842 842 843 844 845 845 846 847 848 848 848 849 849 849 849 850 850 850 850 851 851 851 851 851 851 851 851 851 851 851 851 851 851 850 850 849 849 848 848 848 847 846 845 844 842 841 840 839 838 836 835 833 832
824 824 825 827 829 829 829 828 828 829 828 826 826 827 828 831 832 832 832 832 832 832 833 834 835 836 838 839 840 840 840 840 840 841 842 843 844 844 844 845 845 846 846 847 848 848 848 848 848 848 849 849 849 849 849 849 849 849 849 849 849 849 849 849 848 848 848 847 847 847 846 846 845 844 843 842 840 839 839 837 836 835 834 833 831
826 825 826 829 829 829 829 829 828 829 828 827 826 827 828 830 831 831 832 832 831 831 832 832 834 835 837 838 839 839 839 838 839 840 841 842 842 843 843 843 844 844 845 846 846 846 846 847 846 847 847 847 847 847 847 848 847 847 847 847 847 847 846 846 846 846 846 845 845 845 844 844 843 842 841 840 839 837 837 836 836 835 834 833 832
829 829 829 830 830 829 829 829 829 829 829 828 828 828 828 829 831 831 832 832 832 832 832 832 833 834 836 837 837 836 836 836 837 839 839 840 841 841 842 843 843 844 844 845 845 845 845 845 845 845 845 845 845 845 846 846 846 845 845 844 844 844 844 844 844 843 843 843 843 843 842 842 841 841 840 839 838 837 836 836 836 835 833 832 831
830 830 830 830 830 830 830 830 829 828 828 829 829 830 829 829 830 831 831 830 831 832 832 832 832 832 833 834 834 835 836 836 837 837 838 839 839 840 841 842 842 843 843 843 843 843 843 844 843 843 843 844 844 844 844 844 844 844 843 842 842 842 841 842 842 841 841 841 841 841 840 840 840 839 839 839 838 837 836 836 835 834 832 831 830
830 831 831 831 832 832 831 831 831 830 829 829 829 830 830 830 831 830 830 830 830 831 832 832 832 832 832 833 834 835 836 836 837 837 837 837 838 839 839 840 841 842 842 842 842 842 842 842 842 842 842 842 842 842 842 842 842 842 841 841 840 840 839 839 839 839 839 839 839 839 839 838 838 837 837 837 836 836 835 834 834 833 832 831 830
832 832 833 833 833 833 832 832 832 832 831 830 830 830 830 831 831 830 830 830 830 831 832 832 832 833 833 834 835 835 836 837 837 837 837 837 838 838 838 838 839 840 841 840 840 840 841 841 841 841 841 840 841 841 840 840 840 840 839 839 839 838 838 838 838 838 838 838 838 838 837 837 836 836 836 836 835 835 834 834 834 833 832 831 830
834 834 834 834 834 834 834 833 833 833 833 832 832 832 832 833 833 832 832 831 831 832 833 833 834 834 835 836 836 836 837 837 837 838 837 837 838 838 838 837 838 839 839 839 839 839 840 840 840 840 840 839 839 839 839 838 838 838 838 837 837 837 836 836 836 837 837 837 837 837 836 836 836 835 835 835 835 834 834 833 833 832 831 830 829
836 835 835 836 835 835 835 835 834 834 834 834 834 833 834 835 835 834 834 834 833 834 834 835 835 836 836 837 837 838 839 839 839 838 838 838 839 839 839 838 838 838 838 838 838 838 839 839 839 839 838 837 837 837 837 837 836 836 836 836 836 835 835 835 835 836 836 837 837 836 836 836 836 836 835 835 834 834 833 832 832 831 830 829 828
837 836 836 836 836 836 836 836 836 835 835 835 835 835 836 836 836 836 836 836 836 836 836 836 837 837 838 838 839 840 840 840 840 839 839 839 839 839 839 839 838 838 839 838 838 838 838 838 838 838 837 836 836 835 835 835 835 835 835 835 835 834 834 834 834 835 836 836 836 836 836 836 836 836 835 835 834 833 832 831 830 829 828 827 826
837 837 836 836 836 836 836 836 836 836 836 836 836 836 837 837 837 838 838 838 838 838 838 838 838 838 839 840 840 841 841 841 841 840 840 840 839 839 839 838 838 839 839 838 838 837 837 837 838 837 836 834 834 833 833 833 833 833 833 834 834 834 834 833 834 834 835 835 835 836 836 836 836 836 835 834 834 832 831 830 829 828 827 826 825
836 837 837 837 837 837 836 836 837 837 838 838 838 838 838 839 839 840 840 840 840 840 840 839 839 840 841 841 841 842 842 842 841 841 841 840 840 839 839 839 839 839 838 838 837 837 836 836 836 835 834 833 832 832 832 832 832 832 832 833 833 833 833 833 833 834 834 835 835 835 835 835 835 835 834 834 833 832 831 829 828 827 827 826 825
837 837 838 838 838 838 838 837 837 838 839 839 839 840 840 841 841 842 842 842 842 842 842 842 842 842 842 842 843 843 842 842 842 841 841 841 840 840 839 839 839 838 838 837 837 836 836 835 834 833 832 831 831 830 830 831 831 831 832 833 833 833 833 833 833 834 834 834 834 835 835 835 835 835 834 833 833 832 831 830 829 827 826 825 824
837 837 838 838 838 838 838 838 838 839 839 840 840 841 841 842 843 844 845 844 844 844 844 844 844 844 844 844 844 844 843 843 842 842 841 841 840 840 840 839 839 838 838 837 836 835 835 834 834 833 832 831 830 829 828 828 829 830 831 832 832 832 833 833 833 833 834 834 834 835 835 835 835 834 834 833 832 832 831 830 829 827 826 825 824
838 838 838 838 838 838 838 838 839 839 840 840 840 841 841 842 843 845 846 846 844 844 844 844 845 845 845 845 845 844 844 844 843 842 842 841 841 840 840 839 839 838 838 837 836 836 835 834 834 834 833 831 830 828 826 826 827 829 831 831 832 833 832 832 833 833 834 834 834 834 835 834 834 834 833 833 832 831 831 830 829 828 826 825 824
839 839 838 838 838 837 837 837 838 839 840 840 840 841 842 842 843 845 847 847 845 845 844 845 845 845 845 845 845 845 844 844 843 842 842 841 841 840 839 839 838 838 837 837 836 836 835 835 834 834 833 832 830 829 828 827 829 831 831 832 832 832 832 832 833 833 833 833 833 834 834 834 834 833 833 832 832 831 831 830 829 828 827 825 824
841 840 839 839 838 837 836 836 836 837 839 840 841 841 842 842 843 845 847 847 846 846 846 846 846 845 845 845 845 844 844 843 842 842 841 841 840 840 839 839 838 837 837 836 836 835 835 835 835 834 834 834 832 831 831 830 831 832 831 832 832 832 832 832 832 832 832 832 833 833 834 834 834 833 833 832 831 831 830 830 829 828 826 825 824
841 841 841 840 839 839 838 837 836 836 837 839 840 841 841 842 843 845 847 847 846 846 846 846 846 845 845 845 845 844 844 843 842 842 841 840 840 839 839 839 838 837 837 836 835 835 835 835 835 835 835 835 834 833 833 832 832 832 832 832 832 832 832 832 832 832 832 833 833 834 834 834 834 833 832 832 831 831 830 829 828 827 826 825 824
840 841 841 841 841 840 840 839 838 837 837 838 839 840 840 842 843 845 846 847 846 846 846 846 845 845 845 845 845 844 844 843 843 842 841 840 840 840 839 839 838 838 837 836 835 835 835 835 835 835 835 834 834 833 833 833 833 833 832 832 832 832 832 832 832 832 833 833 834 834 834 834 833 833 832 832 831 830 829 828 828 827 825 825 824
840 840 841 841 841 841 841 840 840 839 839 839 839 840 840 842 843 845 846 846 845 846 846 846 845 845 845 845 844 844 844 844 843 842 842 841 841 841 840 840 839 838 837 836 835 836 836 836 835 835 834 834 833 833 833 833 833 833 833 833 833 833 833 833 833 833 834 834 834 834 833 833 833 832 832 831 830 830 829 828 828 827 826 825 824
840 840 841 841 841 841 841 841 841 840 840 840 841 841 841 842 843 844 845 845 845 845 845 845 845 845 845 845 844 844 844 844 844 844 843 842 842 841 841 840 840 839 838 837 836 836 836 836 835 835 835 834 834 834 834 834 834 833 833 833 833 833 833 833 834 834 833 833 833 833 833 833 833 832 831 830 830 830 829 828 828 827 826 825 824
840 840 840 841 841 841 841 842 842 842 841 841 841 842 842 843 843 843 844 844 845 844 844 844 844 844 845 845 844 844 844 844 844 844 844 844 843 842 842 841 841 841 840 838 838 837 837 837 836 836 836 835 835 835 835 835 835 834 834 834 833 833 834 834 833 833 833 833 833 833 833 833 832 831 831 830 830 830 829 828 828 827 826 825 824
840 840 840 841 841 841 841 841 841 842 842 841 841 842 842 842 843 843 843 844 844 844 844 843 843 844 845 845 845 845 845 845 845 845 844 844 844 843 843 842 842 841 840 840 839 839 838 838 838 837 837 836 836 836 836 836 836 835 835 835 834 834 834 833 833 833 833 833 833 833 832 832 832 831 831 830 830 829 829 828 827 826 825 825 824
840 839 840 840 840 840 840 840 841 841 841 841 841 841 841 842 842 842 842 843 843 843 843 843 844 845 845 845 845 845 845 845 844 844 844 844 844 843 843 843 842 841 841 841 840 840 839 839 839 838 837 837 837 837 837 836 836 836 836 835 835 835 834 834 833 833 833 833 833 833 832 832 831 831 831 830 830 830 829 828 827 826 826 825 824
838 838 838 838 839 839 839 839 840 840 841 841 841 841 841 841 841 841 842 842 843 843 843 844 844 845 845 845 845 845 844 844 844 843 844 844 843 843 843 843 842 842 842 841 841 841 840 840 839 838 838 838 838 837 837 837 837 836 836 836 835 835 835 834 834 833 833 833 833 832 832 832 831 831 830 830 830 830 829 828 827 827 826 825 824
837 837 837 837 837 838 838 838 839 839 840 840 840 840 841 841 841 841 841 842 842 843 843 844 844 844 845 845 844 844 844 844 844 844 844 843 843 843 843 843 843 842 842 842 842 842 841 841 840 839 839 839 838 838 838 837 837 836 836 836 835 835 835 834 834 834 833 833 833 833 832 832 832 831 831 830 830 829 829 828 827 826 825 824 823
838 837 836 836 836 836 836 837 837 837 838 839 839 840 841 840 840 841 841 842 842 843 843 843 844 844 844 844 844 844 844 844 844 844 844 844 844 844 844 843 843 843 843 843 843 842 842 841 841 840 840 839 839 838 838 838 837 837 836 836 835 835 835 834 834 834 834 833 833 833 833 832 832 831 831 830 829 828 828 827 827 826 825 823 822
838 837 836 836 836 835 836 836 836 836 837 837 838 839 840 840 841 841 841 842 842 842 842 843 843 843 844 844 844 844 844 844 844 844 844 844 844 844 844 844 844 843 843 843 843 843 843 842 842 841 841 840 840 839 838 838 837 837 837 836 836 835 835 835 834 834 834 834 833 833 833 832 831 831 830 829 828 828 827 827 826 825 824 822 821
835 835 835 835 835 835 835 835 835 836 836 836 837 838 839 840 840 841 841 842 842 842 842 843 843 843 844 844 844 844 844 844 844 844 844 844 844 844 844 844 844 844 844 843 843 843 843 842 842 842 841 840 840 839 838 837 836 837 837 836 836 836 835 835 835 834 834 834 833 832 832 831 830 830 829 828 828 827 826 826 825 824 822 821 819
833 833 833 834 834 835 834 834 834 835 835 836 837 838 838 839 840 840 841 842 841 841 842 842 842 843 844 844 844 844 844 844 844 844 844 844 844 844 844 844 844 844 844 843 843 843 843 843 843 842 842 841 840 840 839 837 836 836 837 836 836 836 835 835 835 834 834 833 832 832 831 830 829 829 828 828 827 826 825 824 823 822 820 819 817
833 832 832 832 833 834 833 833 833 834 834 835 836 837 838 839 839 840 841 841 841 841 842 842 842 843 843 844 844 844 843 844 844 844 844 844 844 844 844 844 844 844 844 843 843 843 843 843 843 843 842 842 841 841 840 837 836 836 836 836 836 836 835 835 835 834 833 833 832 832 831 830 829 829 828 827 826 825 824 822 821 820 819 817 816
832 831 830 831 833 832 832 831 832 832 833 834 835 836 837 838 838 839 840 840 840 841 842 842 842 843 843 843 844 843 843 844 844 844 844 844 844 844 844 844 844 844 843 843 843 843 843 843 843 843 843 842 841 841 840 837 836 836 836 835 835 835 835 834 834 833 833 833 832 831 831 829 828 828 827 825 824 823 822 821 820 819 817 816 815
830 831 831 832 833 832 831 831 831 832 832 833 834 835 836 837 837 838 839 840 840 841 841 842 842 842 842 843 843 843 843 843 843 844 844 844 844 845 844 844 844 844 843 843 843 843 843 843 843 843 842 841 840 840 839 837 836 836 836 835 835 835 834 834 834 833 833 832 832 831 830 828 827 826 825 824 822 821 820 819 818 817 816 815 813
829 830 831 831 831 831 830 831 831 832 831 832 833 834 835 836 837 838 839 839 840 841 841 842 842 842 842 842 842 842 843 843 843 844 844 844 844 845 844 844 843 843 843 843 843 843 843 843 843 842 841 840 840 840 839 837 836 836 835 835 835 834 834 834 833 833 832 831 830 829 828 827 825 824 823 821 820 819 818 817 816 815 814 813 811
828 829 829 830 830 829 829 830 830 831 831 832 833 834 835 836 837 838 838 839 840 840 841 841 841 841 842 842 842 842 843 843 843 844 844 844 844 844 844 844 843 843 843 843 843 843 843 842 842 841 841 840 840 840 839 838 837 836 835 835 835 834 834 833 833 832 831 830 829 827 826 825 823 822 820 819 818 817 816 815 814 813 812 811 810
827 827 828 829 829 828 828 829 829 830 831 833 834 834 835 836 836 837 838 839 840 840 841 841 841 841 841 842 842 842 842 842 843 843 843 844 844 843 843 843 843 843 843 843 842 842 842 842 841 841 840 840 840 840 839 838 837 836 835 835 834 834 833 832 831 831 830 828 827 825 824 822 821 820 818 817 816 814 813 813 812 811 810 809 808